W8KHW Weather Reports


time (UTC)temp
F
wind
direction
speed
knots
gust
knots
rain 1hr
in
rain 24hr
in
rain mn
in
humidity
%
barometer
mb
20260510225433 64 38 2.6 7.0 0.00 0.00 0.00 46 1018.7
20260510224613 64 29 2.6 7.8 0.00 0.00 0.00 46 1018.5
20260510223753 64 29 1.7 8.7 0.00 0.00 0.00 47 1018.6
20260510222933 64 359 0.9 4.3 0.00 0.00 0.00 46 1018.5
20260510222113 65 354 1.7 6.1 0.00 0.00 0.00 46 1018.6
20260510221252 66 30 1.7 6.1 0.00 0.00 0.00 45 1018.3
20260510220432 65 49 2.6 7.0 0.00 0.00 0.00 44 1018.3
20260510215612 65 70 1.7 6.1 0.00 0.00 0.00 46 1018.5
20260510214752 64 50 1.7 7.0 0.00 0.00 0.00 45 1018.0
20260510213932 64 47 0.9 4.3 0.00 0.00 0.00 46 1018.0
20260510213111 63 352 0.9 4.3 0.00 0.00 0.00 47 1017.8
20260510212251 63 53 1.7 6.1 0.00 0.00 0.00 48 1017.8
20260510211431 63 60 0.9 6.1 0.00 0.00 0.00 45 1017.8
20260510210611 63 26 0.9 3.5 0.00 0.00 0.00 48 1017.7
20260510205751 64 18 1.7 7.8 0.00 0.00 0.00 46 1017.7
20260510204931 64 18 2.6 7.8 0.00 0.00 0.00 48 1017.6
20260510204111 64 19 2.6 8.7 0.00 0.00 0.00 47 1017.8
20260510203250 65 269 0.9 4.3 0.00 0.00 0.00 47 1017.9
20260510202430 65 340 1.7 7.0 0.00 0.00 0.00 47 1017.5
20260510201610 65 311 1.7 7.0 0.00 0.00 0.00 44 1017.9
20260510200749 64 303 1.7 6.1 0.00 0.00 0.00 47 1017.7
20260510195929 66 12 2.6 10.4 0.00 0.00 0.00 46 1017.9
20260510195109 66 35 2.6 10.4 0.00 0.00 0.00 44 1017.8
20260510194249 67 23 2.6 7.8 0.00 0.00 0.00 44 1017.8
20260510193429 66 324 1.7 8.7 0.00 0.00 0.00 45 1018.0
20260510192608 68 352 1.7 9.6 0.00 0.00 0.00 44 1017.9
20260510191748 66 25 2.6 10.4 0.00 0.00 0.00 42 1017.9
20260510190928 67 10 2.6 11.3 0.00 0.00 0.00 46 1017.8
20260510190108 67 347 2.6 10.4 0.00 0.00 0.00 43 1018.0
20260510185248 68 39 2.6 11.3 0.00 0.00 0.00 42 1017.7
20260510184427 68 348 2.6 12.2 0.00 0.00 0.00 45 1017.8
20260510183607 68 6 1.7 7.8 0.00 0.00 0.00 41 1017.7
20260510182747 68 305 2.6 8.7 0.00 0.00 0.00 42 1017.6
20260510181927 68 59 2.6 10.4 0.00 0.00 0.00 44 1017.6
20260510181107 68 41 2.6 10.4 0.00 0.00 0.00 41 1017.7
20260510180246 68 20 2.6 10.4 0.00 0.00 0.00 42 1017.7
20260510175426 68 1 1.7 11.3 0.00 0.00 0.00 41 1017.7
20260510174606 67 20 2.6 9.6 0.00 0.00 0.00 46 1017.3
20260510173746 67 15 2.6 11.3 0.00 0.00 0.00 43 1017.4
20260510172926 67 347 2.6 9.6 0.00 0.00 0.00 44 1017.4
20260510172105 67 10 2.6 12.2 0.00 0.00 0.00 45 1017.4
20260510171245 67 30 2.6 10.4 0.00 0.00 0.00 45 1017.5
20260510170425 67 24 2.6 9.6 0.00 0.00 0.00 44 1017.3
20260510165605 66 357 2.6 9.6 0.00 0.00 0.00 43 1017.4
20260510164745 67 329 1.7 9.6 0.00 0.00 0.00 43 1017.5
20260510163925 66 342 1.7 7.0 0.00 0.00 0.00 41 1017.7
20260510163104 66 26 2.6 13.0 0.00 0.00 0.00 46 1017.6
20260510162244 66 337 2.6 7.8 0.00 0.00 0.00 42 1017.4
20260510161424 67 338 2.6 7.8 0.00 0.00 0.00 45 1017.5
20260510160604 65 327 2.6 7.8 0.00 0.00 0.00 43 1017.6
20260510155744 66 32 2.6 6.1 0.00 0.00 0.00 41 1017.5
20260510154923 66 42 2.6 7.8 0.00 0.00 0.00 43 1017.5
20260510154103 65 360 2.6 9.6 0.00 0.00 0.00 44 1017.5
20260510153243 66 32 1.7 6.1 0.00 0.00 0.00 42 1017.2
20260510152423 66 28 2.6 7.8 0.00 0.00 0.00 51 1017.1
20260510151603 65 46 1.7 7.0 0.00 0.00 0.00 46 1017.1
20260510150742 63 38 2.6 7.8 0.00 0.00 0.00 48 1016.9
20260510145922 64 31 2.6 7.8 0.00 0.00 0.00 48 1016.6
20260510145102 62 45 3.5 8.7 0.00 0.00 0.00 49 1016.6
20260510144242 62 32 3.5 8.7 0.00 0.00 0.00 49 1016.6
20260510143422 63 34 2.6 8.7 0.00 0.00 0.00 49 1016.6
20260510142601 62 32 2.6 7.8 0.00 0.00 0.00 49 1016.1
20260510141741 62 32 2.6 7.8 0.00 0.00 0.00 50 1016.2
20260510140921 62 28 1.7 7.0 0.00 0.00 0.00 49 1015.9
20260510140101 61 24 2.6 7.8 0.00 0.00 0.00 52 1015.9
20260510135241 61 37 2.6 7.8 0.00 0.00 0.00 53 1016.0
20260510134421 59 38 3.5 9.6 0.00 0.00 0.00 53 1015.9
20260510133601 61 65 2.6 7.8 0.00 0.00 0.00 51 1016.0
20260510132740 59 40 1.7 6.1 0.00 0.00 0.00 56 1015.9
20260510131920 57 25 1.7 5.2 0.00 0.00 0.00 61 1015.5
20260510131100 57 34 2.6 7.0 0.00 0.00 0.00 62 1015.4
20260510130240 56 45 2.6 6.1 0.00 0.00 0.00 62 1015.5
20260510125420 56 42 1.7 5.2 0.00 0.00 0.00 62 1015.6
20260510124559 56 50 1.7 5.2 0.00 0.00 0.00 65 1015.5
20260510123739 56 52 1.7 6.1 0.00 0.00 0.00 68 1015.3
20260510122919 55 40 1.7 5.2 0.00 0.00 0.00 70 1015.1
20260510122059 55 44 1.7 5.2 0.00 0.00 0.00 69 1014.8
20260510121239 55 43 0.9 3.5 0.00 0.00 0.00 70 1014.8
20260510120419 55 51 1.7 5.2 0.00 0.01 0.00 70 1014.8
20260510115559 55 30 0.9 6.1 0.00 0.01 0.00 71 1014.7
20260510114738 54 25 1.7 6.1 0.00 0.01 0.00 71 1014.8
20260510113918 55 44 0.9 5.2 0.00 0.01 0.00 71 1014.7
20260510113058 55 46 0.9 4.3 0.00 0.01 0.00 73 1014.4
20260510112238 55 73 0.0 1.7 0.00 0.01 0.00 73 1014.1
20260510111418 55 56 0.9 3.5 0.00 0.01 0.00 74 1014.0
20260510110558 55 27 0.9 4.3 0.00 0.01 0.00 73 1014.0
20260510105738 55 41 1.7 6.1 0.00 0.02 0.00 71 1013.5
20260510104918 55 25 1.7 7.0 0.00 0.02 0.00 69 1013.7
20260510104057 55 32 1.7 7.0 0.00 0.02 0.00 69 1013.8
20260510103237 56 24 1.7 9.6 0.00 0.02 0.00 69 1013.4
20260510102417 56 30 1.7 8.7 0.00 0.02 0.00 68 1013.0
20260510101557 56 25 1.7 8.7 0.00 0.02 0.00 68 1013.1
20260510100737 56 51 0.9 7.0 0.00 0.02 0.00 72 1012.9
20260510095917 56 45 0.9 5.2 0.00 0.04 0.00 70 1012.5
20260510095057 56 41 0.9 6.1 0.00 0.05 0.00 72 1012.5
20260510094237 57 39 0.9 4.3 0.00 0.06 0.00 71 1012.5
20260510093416 57 43 0.9 4.3 0.00 0.07 0.00 73 1012.4
20260510092556 57 24 0.9 4.3 0.00 0.07 0.00 72 1012.1
20260510091736 57 22 0.9 7.8 0.00 0.08 0.00 72 1012.3
20260510090916 58 22 0.9 7.8 0.00 0.08 0.00 72 1011.9
20260510090056 58 24 0.9 7.0 0.00 0.08 0.00 73 1011.7
20260510085235 58 21 0.9 11.3 0.00 0.08 0.00 72 1011.6
20260510084415 58 1 1.7 7.0 0.00 0.08 0.00 73 1011.3
20260510083555 59 4 0.9 9.6 0.00 0.08 0.00 74 1011.0
20260510082735 59 20 1.7 6.1 0.00 0.08 0.00 77 1010.8
20260510081915 59 23 0.9 6.1 0.00 0.09 0.00 78 1010.7
20260510081054 58 36 0.9 5.2 0.00 0.09 0.00 81 1010.6
20260510080234 58 41 0.9 4.3 0.00 0.09 0.00 81 1010.7
20260510075414 58 50 0.9 4.3 0.00 0.09 0.00 81 1010.3
20260510074554 58 56 0.9 3.5 0.00 0.10 0.00 80 1010.4
20260510073734 59 33 0.9 3.5 0.00 0.11 0.00 79 1010.7
20260510072914 59 307 0.9 2.6 0.00 0.11 0.00 78 1010.5
20260510072054 60 278 0.9 4.3 0.00 0.12 0.00 77 1010.8
20260510071234 60 267 1.7 5.2 0.00 0.13 0.00 76 1010.7
20260510070413 61 259 1.7 4.3 0.00 0.14 0.00 75 1010.8
20260510065553 61 268 0.9 2.6 0.00 0.15 0.00 74 1010.3
20260510064733 61 271 1.7 5.2 0.00 0.15 0.00 72 1010.4
20260510063913 61 268 1.7 4.3 0.00 0.15 0.00 71 1010.6
20260510063052 61 267 0.9 3.5 0.00 0.16 0.00 72 1010.6
20260510062232 60 143 0.0 2.6 0.00 0.17 0.00 78 1010.4
20260510061412 60 350 0.0 2.6 0.00 0.17 0.00 76 1010.6
20260510060552 62 266 0.9 4.3 0.00 0.17 0.00 75 1010.5
20260510055732 62 263 1.7 8.7 0.00 0.18 0.00 74 1010.4
20260510054911 62 256 3.5 9.6 0.00 0.18 0.00 75 1010.6
20260510054051 63 258 2.6 8.7 0.00 0.18 0.00 76 1010.7
20260510053231 64 267 2.6 8.7 0.00 0.18 0.00 73 1010.6
20260510052411 64 251 2.6 7.8 0.00 0.18 0.00 71 1010.9
20260510051550 63 234 1.7 5.2 0.00 0.18 0.00 73 1010.5
20260510050730 63 240 0.9 3.5 0.00 0.18 0.00 74 1010.6
20260510045910 62 227 0.0 2.6 0.00 0.18 0.00 74 1010.2
20260510045050 62 243 0.9 3.5 0.00 0.19 0.00 74 1010.0
20260510044230 63 214 0.9 3.5 0.00 0.19 0.00 74 1010.1
20260510043410 62 220 0.9 3.5 0.00 0.19 0.00 74 1009.9
20260510042549 62 181 0.9 3.5 0.00 0.19 0.00 75 1009.7
20260510041729 63 227 0.9 3.5 0.00 0.19 0.00 75 1010.0
20260510040909 62 252 0.9 2.6 0.00 0.19 0.00 75 1009.9
20260510040049 61 226 0.0 2.6 0.00 0.19 0.00 76 1009.6
20260510035229 62 227 0.0 3.5 0.00 0.19 0.19 76 1009.7
20260510034409 61 241 0.0 1.7 0.00 0.20 0.19 76 1009.5
20260510033548 61 123 0.0 1.7 0.00 0.20 0.19 77 1009.4
20260510032728 62 147 0.0 3.5 0.00 0.20 0.19 76 1009.4
20260510031908 62 178 0.0 1.7 0.00 0.20 0.19 76 1009.5
20260510031048 62 159 0.0 2.6 0.00 0.20 0.19 75 1009.1
20260510030228 62 180 0.0 2.6 0.00 0.20 0.19 75 1009.4
20260510025407 63 259 0.0 2.6 0.00 0.20 0.19 73 1009.4
20260510024547 63 135 0.0 1.7 0.00 0.20 0.19 74 1009.4
20260510023727 63 238 0.0 2.6 0.00 0.20 0.19 73 1009.4
20260510022907 63 215 0.0 1.7 0.00 0.20 0.19 72 1009.2
20260510022047 63 178 0.0 3.5 0.00 0.20 0.19 73 1009.1
20260510021227 64 200 0.9 2.6 0.00 0.20 0.19 72 1009.1
20260510020407 64 169 0.0 2.6 0.00 0.20 0.19 72 1008.7
20260510015546 64 204 0.9 4.3 0.00 0.20 0.19 72 1008.9
20260510014726 64 217 0.9 2.6 0.00 0.20 0.19 73 1008.8
20260510013906 63 102 0.0 1.7 0.00 0.20 0.19 73 1008.5
20260510013046 63 108 0.0 1.7 0.00 0.20 0.19 72 1008.2
20260510012226 64 120 0.0 1.7 0.00 0.20 0.19 71 1008.4
20260510011405 64 95 0.0 2.6 0.00 0.20 0.19 70 1008.3
20260510010545 65 96 0.0 1.7 0.00 0.20 0.19 69 1008.0
20260510005725 65 90 0.0 1.7 0.00 0.20 0.19 68 1008.1
20260510004905 65 106 0.0 1.7 0.00 0.21 0.19 66 1008.0
20260510004044 66 138 0.0 2.6 0.00 0.21 0.19 65 1007.7
20260510003224 67 246 0.9 2.6 0.00 0.21 0.19 64 1007.9
20260510002404 68 224 0.9 5.2 0.00 0.21 0.19 62 1007.7
20260510001544 68 236 0.9 2.6 0.00 0.21 0.19 62 1007.7
20260510000724 69 241 0.9 4.3 0.00 0.21 0.19 60 1007.6
20260509235904 69 245 1.7 6.1 0.00 0.21 0.19 59 1007.3
20260509235043 70 243 1.7 6.1 0.00 0.21 0.19 57 1007.3
20260509234223 70 251 2.6 6.1 0.00 0.21 0.19 55 1007.2
20260509233403 70 250 1.7 6.1 0.00 0.21 0.19 56 1007.3
20260509232543 70 235 1.7 9.6 0.00 0.21 0.19 55 1007.0
20260509231723 70 250 2.6 11.3 0.00 0.21 0.19 55 1007.2
20260509230903 71 257 2.6 8.7 0.00 0.21 0.19 54 1007.4
20260509230042 71 247 2.6 7.8 0.00 0.21 0.19 56 1007.3